Weather History for Audubon, IA

Change the Weather History Date:

Monday, October 28, 2013

  Actual Average Record
Temperature  
Mean Temperature 44 °F -  
Max Temperature 53 °F 58 °F 75 °F (1948)
Min Temperature 35 °F 35 °F 16 °F (1967)
Degree Days  
Heating Degree Days 21    
Moisture  
Dew Point 32 °F    
Average Humidity 65    
Maximum Humidity 81    
Minimum Humidity 44    
Precipitation  
Precipitation 0.00 in - - ()
Sea Level Pressure  
Sea Level Pressure 30.17 in    
Wind  
Wind Speed 7 mph (NE)    
Max Wind Speed 17 mph    
Max Gust Speed 24 mph    
Visibility 10 miles    
Events      
Averages and records for this station are not official NWS values.
T = Trace of Precipitation, MM = Missing Value Source: NWS Daily Summary

Daily Weather History Graph

Daily Weather History Graph

Search for Another Location

Airport:

Trip Planner

Search our weather history database for the weather conditions in past years. The results will help you decide how hot, cold, wet, or windy it might be!

Date:

Astronomy

Oct. 28, 2013 Rise Set
Actual Time 7:47 AM CDT 6:18 PM CDT
Civil Twilight 7:18 AM CDT 6:47 PM CDT
Nautical Twilight 6:45 AM CDT 7:20 PM CDT
Astronomical Twilight 6:13 AM CDT 7:52 PM CDT
Moon 1:36 AM CDT (10/28) 3:05 PM CDT (10/28)
Length of Visible Light 11h 28m
Length of Day
10h 31m
Waning Crescent, 34% of the Moon is Illuminated
Oct 28
Waning Crescent
Nov 3
New
Nov 9
First Quarter
Nov 17
Full
Nov 25
Last Quarter

Hourly Weather History & Observations

Time (CDT) Temp. Windchill Dew Point Humidity Pressure Visibility Wind Dir Wind Speed Gust Speed Precip Events Conditions
12:15 AM 42.8 °F - 33.8 °F 70% 30.00 in 10.0 mi Calm Calm - N/A   Clear
12:35 AM 42.8 °F - 33.8 °F 70% 30.00 in 10.0 mi Calm Calm - N/A   Clear
12:55 AM 42.8 °F - 32.0 °F 66% 30.01 in 10.0 mi Calm Calm - N/A   Clear
1:15 AM 41.0 °F - 32.0 °F 70% 30.01 in 10.0 mi Calm Calm - N/A   Clear
1:55 AM 39.2 °F - 30.2 °F 70% 30.02 in 10.0 mi Calm Calm - N/A   Clear
2:15 AM 39.2 °F 37.0 °F 30.2 °F 70% 30.03 in 10.0 mi NNE 3.5 mph - N/A   Clear
2:35 AM 39.2 °F 37.0 °F 30.2 °F 70% 30.04 in 10.0 mi NNE 3.5 mph - N/A   Clear
2:55 AM 39.2 °F 37.0 °F 30.2 °F 70% 30.03 in 10.0 mi NNE 3.5 mph - N/A   Clear
3:15 AM 39.2 °F 35.0 °F 30.2 °F 70% 30.04 in 10.0 mi North 5.8 mph - N/A   Clear
3:35 AM 39.2 °F 35.9 °F 30.2 °F 70% 30.05 in 10.0 mi North 4.6 mph - N/A   Clear
3:55 AM 39.2 °F 37.0 °F 30.2 °F 70% 30.06 in 10.0 mi NNE 3.5 mph - N/A   Clear
4:15 AM 39.2 °F 35.0 °F 30.2 °F 70% 30.07 in 10.0 mi NNE 5.8 mph - N/A   Clear
4:35 AM 39.2 °F 35.9 °F 30.2 °F 70% 30.07 in 10.0 mi NNE 4.6 mph - N/A   Clear
4:55 AM 37.4 °F 32.1 °F 30.2 °F 75% 30.07 in 10.0 mi NNE 6.9 mph - N/A   Clear
5:15 AM 37.4 °F 30.8 °F 30.2 °F 75% 30.08 in 10.0 mi NNE 9.2 mph - N/A   Clear
5:35 AM 37.4 °F 30.3 °F 30.2 °F 75% 30.09 in 10.0 mi NNE 10.4 mph 17.3 mph N/A   Clear
5:55 AM 37.4 °F 30.8 °F 30.2 °F 75% 30.10 in 10.0 mi NNE 9.2 mph 17.3 mph N/A   Clear
6:15 AM 37.4 °F 30.3 °F 30.2 °F 75% 30.10 in 10.0 mi NNE 10.4 mph 16.1 mph N/A   Clear
6:35 AM 37.4 °F 30.3 °F 30.2 °F 75% 30.12 in 10.0 mi NNE 10.4 mph 17.3 mph N/A   Clear
6:55 AM 37.4 °F 30.8 °F 30.2 °F 75% 30.13 in 10.0 mi NNE 9.2 mph - N/A   Clear
7:15 AM 37.4 °F 29.8 °F 30.2 °F 75% 30.14 in 10.0 mi NNE 11.5 mph 16.1 mph N/A   Clear
7:35 AM 37.4 °F 30.3 °F 30.2 °F 75% 30.15 in 10.0 mi NNE 10.4 mph - N/A   Clear
7:55 AM 35.6 °F 28.0 °F 30.2 °F 81% 30.16 in 10.0 mi NNE 10.4 mph - N/A   Clear
8:15 AM 37.4 °F 30.8 °F 30.2 °F 75% 30.17 in 10.0 mi NNE 9.2 mph 19.6 mph N/A   Clear
8:35 AM 37.4 °F 30.8 °F 30.2 °F 75% 30.18 in 10.0 mi NE 9.2 mph - N/A   Clear
8:55 AM 37.4 °F 30.3 °F 30.2 °F 75% 30.19 in 10.0 mi NE 10.4 mph 16.1 mph N/A   Clear
9:15 AM 37.4 °F 29.8 °F 30.2 °F 75% 30.21 in 10.0 mi NE 11.5 mph 16.1 mph N/A   Clear
9:35 AM 39.2 °F 30.8 °F 32.0 °F 75% 30.22 in 10.0 mi ENE 15.0 mph 19.6 mph N/A   Clear
9:55 AM 41.0 °F 34.3 °F 32.0 °F 70% 30.21 in 10.0 mi ENE 11.5 mph 20.7 mph N/A   Clear
10:15 AM 42.8 °F 35.1 °F 32.0 °F 66% 30.22 in 10.0 mi ENE 16.1 mph 24.2 mph N/A   Clear
10:35 AM 42.8 °F 35.1 °F 30.2 °F 61% 30.22 in 10.0 mi ENE 16.1 mph 20.7 mph N/A   Clear
10:55 AM 44.6 °F 38.8 °F 32.0 °F 61% 30.24 in 10.0 mi NE 11.5 mph 19.6 mph N/A   Clear
11:15 AM 44.6 °F 38.1 °F 32.0 °F 61% 30.23 in 10.0 mi ENE 13.8 mph 18.4 mph N/A   Clear
11:35 AM 46.4 °F 40.1 °F 33.8 °F 62% 30.23 in 10.0 mi ENE 15.0 mph - N/A   Scattered Clouds
11:55 AM 46.4 °F 40.1 °F 32.0 °F 57% 30.23 in 10.0 mi ENE 15.0 mph 21.9 mph N/A   Clear
12:15 PM 48.2 °F - 32.0 °F 54% 30.22 in 10.0 mi East 16.1 mph 21.9 mph N/A   Clear
12:35 PM 50.0 °F - 33.8 °F 54% 30.22 in 10.0 mi ENE 12.7 mph 20.7 mph N/A   Clear
12:55 PM 51.8 °F - 33.8 °F 50% 30.21 in 10.0 mi East 12.7 mph 19.6 mph N/A   Clear
1:15 PM 51.8 °F - 32.0 °F 47% 30.20 in 10.0 mi ENE 13.8 mph 19.6 mph N/A   Clear
1:35 PM 51.8 °F - 32.0 °F 47% 30.19 in 10.0 mi East 11.5 mph 18.4 mph N/A   Clear
1:55 PM 51.8 °F - 33.8 °F 50% 30.20 in 10.0 mi East 13.8 mph - N/A   Clear
2:15 PM 53.6 °F - 32.0 °F 44% 30.20 in 10.0 mi East 10.4 mph - N/A   Clear
2:35 PM 53.6 °F - 33.8 °F 47% 30.20 in 10.0 mi NE 11.5 mph 17.3 mph N/A   Clear
2:55 PM 53.6 °F - 32.0 °F 44% 30.20 in 10.0 mi NE 11.5 mph - N/A   Clear
3:15 PM 53.6 °F - 33.8 °F 47% 30.20 in 10.0 mi NE 10.4 mph 16.1 mph N/A   Clear
3:35 PM 51.8 °F - 33.8 °F 50% 30.20 in 10.0 mi NE 11.5 mph 18.4 mph N/A   Clear
3:55 PM 51.8 °F - 33.8 °F 50% 30.20 in 10.0 mi ENE 13.8 mph 18.4 mph N/A   Clear
4:15 PM 51.8 °F - 33.8 °F 50% 30.21 in 10.0 mi ENE 13.8 mph 17.3 mph N/A   Clear
4:35 PM 51.8 °F - 33.8 °F 50% 30.21 in 10.0 mi ENE 12.7 mph 16.1 mph N/A   Clear
4:55 PM 50.0 °F - 33.8 °F 54% 30.21 in 10.0 mi NE 11.5 mph 23.0 mph N/A   Clear
5:15 PM 48.2 °F - 33.8 °F 58% 30.21 in 10.0 mi ENE 12.7 mph 19.6 mph N/A   Clear
5:35 PM 48.2 °F - 35.6 °F 62% 30.21 in 10.0 mi NE 11.5 mph 18.4 mph N/A   Clear
5:55 PM 48.2 °F - 35.6 °F 62% 30.22 in 10.0 mi ENE 12.7 mph 21.9 mph N/A   Clear
6:15 PM 46.4 °F 41.1 °F 35.6 °F 66% 30.23 in 10.0 mi ENE 11.5 mph 16.1 mph N/A   Clear
6:35 PM 46.4 °F 42.4 °F 35.6 °F 66% 30.23 in 10.0 mi ENE 8.1 mph - N/A   Clear
6:55 PM 46.4 °F 41.9 °F 35.6 °F 66% 30.22 in 10.0 mi ENE 9.2 mph - N/A   Clear
7:15 PM 46.4 °F 41.5 °F 35.6 °F 66% 30.22 in 10.0 mi ENE 10.4 mph - N/A   Clear
7:35 PM 46.4 °F 41.5 °F 35.6 °F 66% 30.23 in 10.0 mi ENE 10.4 mph - N/A   Clear
7:55 PM 44.6 °F 39.7 °F 35.6 °F 71% 30.23 in 10.0 mi ENE 9.2 mph - N/A   Clear
8:15 PM 44.6 °F 40.2 °F 33.8 °F 66% 30.23 in 10.0 mi ENE 8.1 mph - N/A   Clear
8:35 PM 44.6 °F 40.2 °F 33.8 °F 66% 30.24 in 10.0 mi ENE 8.1 mph - N/A   Clear
8:55 PM 44.6 °F 39.2 °F 33.8 °F 66% 30.24 in 10.0 mi ENE 10.4 mph - N/A   Clear
9:15 PM 44.6 °F 40.2 °F 33.8 °F 66% 30.24 in 10.0 mi ENE 8.1 mph - N/A   Clear
9:35 PM 42.8 °F 37.0 °F 33.8 °F 70% 30.24 in 10.0 mi ENE 10.4 mph - N/A   Clear
9:55 PM 42.8 °F 37.0 °F 33.8 °F 70% 30.24 in 10.0 mi East 10.4 mph 17.3 mph N/A   Clear
10:15 PM 42.8 °F 38.0 °F 33.8 °F 70% 30.27 in 10.0 mi East 8.1 mph - N/A   Clear
10:35 PM 42.8 °F 37.5 °F 33.8 °F 70% 30.27 in 10.0 mi East 9.2 mph - N/A   Clear
10:55 PM 42.8 °F 36.2 °F 33.8 °F 70% 30.24 in 10.0 mi East 12.7 mph 17.3 mph N/A   Clear
11:15 PM 42.8 °F 35.8 °F 33.8 °F 70% 30.23 in 10.0 mi East 13.8 mph 21.9 mph N/A   Clear
11:35 PM 42.8 °F 36.6 °F 33.8 °F 70% 30.24 in 10.0 mi East 11.5 mph 16.1 mph N/A   Clear
11:55 PM 42.8 °F 34.8 °F 33.8 °F 70% 30.24 in 10.0 mi East 17.3 mph - N/A   Clear